OneWeb SL0298

operational
NORAD ID: 49087 Int'l Des: 2021-075 Owner: ONEWEBN Country: UK Constellation: oneweb
LEOCIRCULARPOLARONEWEB_TYPE

关于 OneWeb SL0298

正在加载描述...

实时位置

正在加载3D地球...

即将过境

高度历史

Altitude vs Time

uPlot chart will show altitude changes over time

两行轨道根数

1 49087U 21075N 25258.15128416 -.00000140 00000-0 -39409-3 0 9998
2 49087 87.9044 60.5812 0001724 90.6606 269.4723 13.17649705197402
Epoch: Sep 15, 2025 • Age: 12 hours

当前状态

高度 1203.3 km
速度 7.26 km/s
星下点 61.99°N, 14.29°E
发射日期 Aug 21, 2021
运行时间 4 years
类型 internet

技术详情

分类 Payload
质量 148.00 kg
干质量 140.00 kg
总质量 148.00 kg
长度 1.30 m
直径 1.00 m
跨度 5.00 m
形状 Trapezoid+2 pan
制造商 ONEWUS
平台类型 ARROW
阶段状态 In Orbit
所有者/国家 ONEWEBN/UK

大型星座

Loading constellations...